カタログに戻る

SHIYAN 10

SY-10

運用中科学HEO
NORAD 49258·PAYLOAD·🇨🇳 China

打ち上げ Sep 27, 2021 から Xichang Satellite Launch Center

Loading…

次のパス (今後24時間)

TLE

最新Source: Space-Track

元期: Sep 14, 2026, 03:12 UTC

1 49258U 21087A   26257.13376193  .00000665  00000-0  00000-0 0  9998
2 49258  63.1342 209.9958 6885712 269.7228  17.9820  2.00591926 36318

AllMySatでSHIYAN 10をリアルタイム追跡

Download on the App Store